CAPE
22 22 24 28 28 20 23 38 44 44 40 38 53 53 69 96 84 84 46 15 15 9 7 21 21 41 59 54 11 11 1 1 0 0 0 6 23 23 55 62 62 41 21 16 16 23 19 25 25 32 40 39 41 41 46 54 54 61 61 49 49 42 32 28 28 30 26 22 11 11 4 0 nan nan nan nan nan nan nan 0 0 3 5 8 8 14
33 31 28 30 30 28 24 42 48 48 39 47 60 60 73 77 79 79 68 29 29 14 18 25 25 41 54 42 7 7 0 1 3 3 4 7 19 19 39 41 41 18 4 6 6 13 20 22 22 24 17 10 14 14 21 25 25 33 38 43 43 38 31 28 28 28 25 26 12 12 2 nan nan nan nan 0 1 1 0 1 1 4 9 19 19 33
36 27 30 27 27 29 21 32 31 31 37 60 63 63 72 79 67 67 46 26 26 40 49 31 31 32 45 40 17 17 4 5 10 10 14 20 31 31 43 37 37 13 1 2 2 7 11 12 12 6 0 0 1 1 3 7 7 9 12 14 14 16 16 19 19 14 13 9 4 4 nan nan nan nan nan 2 3 3 3 4 4 8 16 25 25 30
38 28 37 28 28 29 26 24 24 24 40 56 50 50 60 67 71 71 51 35 35 54 55 50 50 34 33 42 37 37 15 13 20 20 30 39 43 43 47 43 43 13 1 1 1 2 5 3 3 nan nan nan nan nan nan 1 1 3 4 3 3 2 2 1 1 1 0 nan nan nan nan nan nan nan nan nan nan nan 2 5 5 12 23 30 30 32
54 48 40 31 31 29 31 29 30 30 37 42 40 40 50 54 65 65 58 44 44 37 36 51 51 44 37 46 59 59 42 27 30 30 39 43 42 42 44 38 38 12 1 nan nan nan 1 nan nan nan nan nan nan nan nan nan nan 2 3 1 1 0 nan nan nan nan nan nan nan nan nan nan nan nan nan nan nan nan nan 1 1 10 21 30 30 33
74 72 56 43 43 29 29 25 28 28 47 41 50 50 57 75 75 75 80 51 51 21 17 36 36 55 57 65 86 86 61 31 28 28 29 31 34 34 30 23 23 6 nan nan nan nan nan nan nan nan nan nan nan nan nan 0 0 1 2 1 1 0 nan nan nan nan nan nan nan nan nan nan nan nan nan nan nan nan nan nan nan 2 17 31 31 33
98 80 65 50 50 51 40 29 34 34 23 18 39 39 55 90 110 110 102 60 60 32 33 36 36 59 95 90 89 89 63 27 19 19 19 21 17 17 15 10 10 2 nan nan nan nan nan nan nan nan nan nan nan nan nan 1 1 1 1 1 1 0 nan nan nan nan nan nan nan nan nan nan nan nan nan nan nan nan nan nan nan nan 8 29 29 35
118 110 102 117 117 92 50 25 29 29 23 28 40 40 57 51 82 82 144 177 177 177 120 65 65 48 79 92 79 79 65 35 28 28 30 35 37 37 31 26 26 18 12 8 8 4 3 1 1 0 0 1 1 1 2 2 2 2 1 0 0 0 nan nan nan nan nan nan nan nan nan nan nan nan nan nan nan nan nan nan nan nan nan 9 9 31
134 147 131 179 179 142 51 27 32 32 31 34 48 48 60 66 66 66 69 84 84 127 82 49 49 46 60 81 82 82 63 36 30 30 42 45 39 39 37 35 35 29 19 13 13 7 3 2 2 1 2 2 3 3 3 2 2 2 1 0 0 nan nan nan nan nan nan nan nan nan nan nan nan nan nan nan nan nan nan nan nan nan nan 2 2 22
129 158 134 115 115 72 42 31 42 42 72 81 112 112 105 67 56 56 61 61 61 56 45 41 41 29 28 48 67 67 42 38 44 44 46 45 45 45 39 32 32 32 17 12 12 7 2 1 1 1 1 2 3 3 2 1 1 1 0 nan nan nan nan nan nan nan nan nan nan nan nan nan nan nan nan nan nan nan nan nan nan nan nan nan nan 11
66 112 128 100 100 73 31 55 77 77 137 136 96 96 85 74 75 75 73 51 51 40 33 27 27 18 17 22 37 37 31 27 36 36 50 44 39 39 33 22 22 15 14 9 9 3 1 1 1 1 1 2 2 2 2 0 0 0 0 nan nan nan nan nan nan nan nan nan nan nan nan nan nan nan nan nan nan nan nan nan nan nan nan nan nan 2
40 51 68 52 52 49 58 86 104 104 130 126 111 111 90 77 92 92 65 58 58 45 38 28 28 18 23 25 28 28 27 23 30 30 48 63 57 57 37 21 21 11 10 6 6 4 2 2 2 1 2 2 2 2 1 1 1 0 0 nan nan nan nan nan nan nan nan nan nan nan nan nan nan nan nan nan nan nan nan nan nan nan nan nan nan nan
40 29 31 36 36 60 85 105 100 100 77 73 80 80 72 60 55 55 62 55 55 63 38 29 29 36 45 41 32 32 32 39 59 59 75 72 49 49 32 19 19 12 10 7 7 6 4 3 3 2 1 2 2 2 1 1 1 0 0 1 1 0 0 0 0 0 0 0 nan nan nan nan nan nan nan nan nan nan nan nan nan nan nan nan nan nan
58 51 43 40 40 61 91 86 104 104 62 43 45 45 38 25 25 25 33 55 55 64 66 66 66 63 65 56 57 57 64 84 114 114 126 81 50 50 34 18 18 13 11 8 8 7 7 6 6 3 2 3 1 1 2 2 2 1 2 2 2 2 2 1 1 1 1 1 0 0 nan nan nan nan nan nan nan nan nan nan nan nan nan nan nan nan
82 96 82 64 64 73 67 56 59 59 57 39 29 29 18 16 19 19 27 69 69 93 95 132 132 109 92 90 79 79 124 149 174 174 134 72 54 54 53 22 22 16 13 8 8 7 10 9 9 7 7 7 5 5 3 5 5 2 2 2 2 3 3 3 3 2 2 2 1 1 0 nan nan nan nan nan nan nan nan nan nan nan nan nan nan nan
69 129 124 112 112 120 75 56 58 58 63 52 30 30 14 11 17 17 48 107 107 113 113 154 154 136 118 116 149 149 175 192 205 205 110 54 52 52 66 36 36 24 14 9 9 9 13 13 13 10 10 5 1 1 nan 6 6 1 2 3 3 4 4 4 4 3 3 2 1 1 1 nan nan nan nan nan nan nan nan nan nan nan nan nan nan nan
62 83 114 137 137 147 120 71 66 66 71 58 30 30 16 30 38 38 77 93 93 140 143 179 179 174 177 172 173 173 182 190 163 163 92 59 54 54 83 43 43 22 18 10 10 9 11 11 11 13 11 8 1 1 nan 0 0 1 4 6 6 6 5 4 4 2 1 1 1 1 0 nan nan nan nan nan nan nan nan nan nan nan nan nan nan nan
63 65 79 98 98 164 186 161 96 96 72 41 29 29 18 67 103 103 108 105 105 112 133 196 196 214 191 170 138 138 213 209 154 154 88 59 68 68 105 45 45 20 15 12 12 8 13 17 17 14 13 6 0 0 nan 1 1 5 6 5 5 4 4 3 3 2 1 0 0 0 nan nan nan nan nan nan nan nan nan nan nan nan nan nan nan nan
39 58 59 74 74 108 191 233 129 129 73 45 35 35 47 80 129 129 171 163 163 118 114 165 165 174 159 113 90 90 222 236 137 137 102 62 56 56 77 36 36 14 13 11 11 13 18 17 17 15 10 3 0 0 1 3 3 5 5 5 5 3 3 3 3 2 1 0 nan nan nan nan nan nan nan nan nan nan nan nan nan nan nan nan nan nan
50 62 48 63 63 97 158 177 161 161 97 66 49 49 68 123 185 185 178 161 161 125 127 127 127 121 108 68 60 60 173 195 133 133 117 92 71 71 84 54 54 15 14 11 11 15 19 17 17 16 4 0 0 0 2 4 4 6 4 4 4 3 2 2 2 2 2 0 nan nan nan nan nan nan nan nan nan nan nan nan nan nan nan nan nan nan
44 74 61 60 60 81 106 100 110 110 122 122 95 95 124 182 213 213 177 161 161 155 115 118 118 97 86 61 54 54 228 205 113 113 115 106 84 84 113 50 50 13 14 14 14 21 16 12 12 13 12 1 2 2 3 5 5 5 4 3 3 3 2 2 2 2 2 0 nan nan nan nan nan nan nan nan nan nan nan nan nan nan nan nan nan nan
35 50 66 66 66 68 87 77 133 133 200 222 170 170 170 150 187 187 226 208 208 168 156 136 136 122 117 62 136 136 296 202 89 89 60 62 109 109 125 41 41 22 16 19 19 21 13 8 8 8 7 2 2 2 3 4 4 4 4 3 3 2 2 2 2 2 2 0 nan nan nan nan nan nan nan nan nan nan nan nan nan nan nan nan nan nan
56 46 51 66 66 96 110 103 175 175 283 257 136 136 91 76 79 79 128 146 146 123 157 192 192 216 186 251 308 308 175 93 47 47 56 69 52 52 121 38 38 20 12 19 19 17 9 4 4 5 5 1 3 3 3 3 3 4 4 3 3 3 2 2 2 2 1 1 nan nan nan nan nan nan nan nan nan nan nan nan nan nan nan nan nan nan
39 34 33 38 38 66 99 135 174 174 266 253 158 158 132 139 151 151 170 171 171 163 135 139 139 160 167 215 135 135 7 0 1 1 24 81 41 41 50 38 38 18 12 18 18 15 8 4 4 5 6 2 3 3 4 5 5 4 3 3 3 2 2 2 2 2 2 1 nan nan nan nan nan nan nan nan nan nan nan nan nan nan nan nan nan nan
9 15 18 19 19 53 54 60 95 95 153 172 155 155 181 214 201 201 174 183 183 194 172 136 136 80 121 202 151 151 73 5 11 11 37 63 30 30 25 27 27 14 14 19 19 13 4 4 4 6 6 3 3 3 4 5 5 4 3 3 3 2 2 2 2 2 2 0 nan nan nan nan nan nan nan nan nan nan nan nan nan nan nan nan nan nan
16 15 19 24 24 64 74 79 90 90 96 81 79 79 90 107 86 86 72 92 92 133 161 98 98 83 111 180 197 197 264 65 20 20 22 23 7 7 12 14 14 10 14 21 21 9 3 5 5 4 5 4 3 3 4 4 4 3 4 3 3 2 2 2 2 2 2 1 nan nan nan nan nan nan nan nan nan nan nan nan nan nan nan nan nan nan
56 51 60 71 71 74 80 89 101 101 139 113 63 63 48 47 52 52 72 48 48 87 83 95 95 87 66 48 36 36 136 78 15 15 16 13 9 9 6 7 7 4 14 19 19 4 3 4 4 3 3 3 4 4 3 4 4 3 3 3 3 3 3 1 1 2 2 1 nan nan nan nan nan nan nan nan nan nan nan nan nan nan nan nan nan nan
68 66 66 66 66 72 77 80 93 93 122 141 162 162 81 49 40 40 61 48 48 65 91 84 84 69 24 15 11 11 19 41 19 19 13 17 9 9 13 11 11 2 7 4 4 5 4 4 4 4 3 3 4 4 3 3 3 3 3 2 2 2 2 2 2 2 2 1 nan nan nan nan nan nan nan nan nan nan nan nan nan nan nan nan nan nan
59 60 59 65 65 67 70 80 87 87 95 123 158 158 104 42 38 38 49 44 44 45 101 112 112 80 39 17 15 15 14 24 27 27 9 10 8 8 19 13 13 0 0 2 2 8 7 4 4 5 4 4 3 3 3 2 2 2 2 2 2 2 2 2 2 2 2 1 0 0 nan nan nan nan nan nan nan nan nan nan nan nan nan nan nan nan
40 44 50 51 51 52 55 48 61 61 84 116 129 129 102 44 54 54 70 42 42 57 96 132 132 118 59 39 22 22 18 22 27 27 8 3 10 10 16 4 4 0 2 2 2 6 10 6 6 6 5 5 3 3 3 3 3 3 3 2 2 1 2 2 2 1 3 3 1 1 nan nan nan nan nan nan nan nan nan nan nan nan nan nan nan nan
21 25 22 25 25 26 22 18 33 33 65 89 97 97 95 48 59 59 73 67 67 76 108 106 106 126 99 69 46 46 25 21 42 42 1 0 7 7 7 nan nan 0 3 6 6 8 6 7 7 6 6 5 4 4 4 3 3 3 3 2 2 3 2 2 2 2 3 4 2 2 nan nan nan nan nan nan nan nan nan nan nan nan nan nan nan nan
29 31 35 27 27 22 23 22 19 19 18 23 31 31 45 55 58 58 67 74 74 73 81 86 86 105 120 104 69 69 36 40 27 27 nan nan nan nan 0 nan nan nan nan nan nan 2 4 6 6 7 8 5 4 4 3 3 3 3 3 3 3 3 4 5 5 5 3 9 6 6 2 0 nan nan nan nan nan nan nan nan nan nan nan nan nan nan
26 32 43 41 41 39 32 33 29 29 28 26 27 27 29 40 47 47 50 58 58 67 72 83 83 83 88 82 62 62 39 44 39 39 0 nan 0 0 0 nan nan 0 nan 0 0 2 5 7 7 7 7 6 4 4 4 3 3 4 4 3 3 3 3 4 4 4 3 5 5 5 5 2 0 0 nan nan nan nan nan nan nan nan nan nan nan nan
23 34 40 45 45 47 49 51 51 51 50 41 43 43 38 37 36 36 42 40 40 50 61 63 63 71 67 56 56 56 46 44 48 48 0 nan nan nan nan nan nan 0 0 0 0 2 3 5 5 4 5 5 4 4 4 3 3 3 4 3 3 2 2 2 2 2 1 1 3 3 2 2 3 3 1 1 1 1 nan nan nan nan nan nan nan nan
24 30 37 40 40 43 49 46 55 55 62 68 63 63 64 57 51 51 45 53 53 57 58 64 64 67 61 60 60 60 53 66 36 36 0 nan nan nan nan nan nan nan nan 0 0 1 2 2 2 4 5 3 3 3 4 4 4 4 3 3 3 2 1 2 2 1 1 1 1 1 0 1 0 0 1 2 2 2 3 1 1 nan nan nan nan nan
20 27 33 31 31 34 47 62 65 65 74 78 87 87 84 70 73 73 71 68 68 76 90 86 86 81 73 63 55 55 48 61 26 26 nan nan nan nan nan nan nan nan nan 0 0 2 1 1 1 4 4 3 2 2 3 6 6 5 1 1 1 2 2 1 1 1 1 1 0 0 0 0 0 0 1 3 3 3 3 4 4 4 3 nan nan nan
14 17 23 30 30 35 51 60 60 60 64 65 60 60 58 58 58 58 55 49 49 47 49 66 66 77 76 66 58 58 50 33 0 0 nan nan nan nan nan nan nan 0 nan 0 0 1 1 1 1 1 2 2 2 2 2 5 5 3 1 1 1 0 0 1 1 1 1 2 1 1 1 0 0 0 2 9 3 3 5 7 7 6 6 5 5 4
12 17 18 23 23 35 33 41 41 41 44 39 39 39 43 36 30 30 18 18 18 13 7 7 7 11 35 38 37 37 36 17 nan nan nan nan nan nan nan nan nan 1 3 2 2 0 0 0 0 0 0 1 2 2 3 3 3 1 1 0 0 nan nan 0 0 1 1 2 2 2 2 0 nan nan nan 0 0 0 0 0 0 5 6 5 5 6
11 12 10 14 14 21 28 33 37 37 34 33 20 20 7 3 4 4 3 2 2 4 3 0 0 nan nan nan 2 2 1 nan nan nan nan nan nan nan nan nan nan 0 3 3 3 3 1 1 1 0 nan nan 1 1 2 2 2 1 1 nan nan nan nan nan nan 1 1 0 2 2 0 nan nan nan nan nan nan nan nan 0 0 1 2 1 1 6
17 8 10 22 22 26 35 32 24 24 8 1 nan nan 0 1 0 0 1 1 1 1 1 0 0 nan 0 0 0 0 nan nan nan nan nan nan nan nan nan nan nan 1 1 1 1 1 1 1 1 1 1 0 0 0 nan 0 0 2 1 nan nan nan nan nan nan nan 0 nan 0 0 nan nan nan nan nan nan nan nan nan nan nan nan nan nan nan nan
18 8 17 31 31 34 18 0 nan nan nan nan 0 0 1 1 1 1 1 2 2 2 1 1 1 1 1 1 1 1 0 nan nan nan nan nan nan nan nan nan nan nan 0 nan nan nan nan nan nan 0 0 1 0 0 0 0 0 1 0 nan nan nan nan nan nan nan nan nan nan nan 0 nan nan nan nan nan nan nan nan nan nan nan nan nan nan nan
26 18 8 1 1 0 0 1 1 1 2 2 1 1 1 1 1 1 1 2 2 2 2 1 1 1 0 0 1 1 1 0 nan nan nan nan nan nan nan nan nan 0 nan nan nan nan nan 0 0 1 1 0 nan nan nan 0 0 0 0 nan nan nan nan nan nan nan nan nan nan nan 1 nan nan nan nan nan nan nan nan nan nan 2 0 nan nan nan
20 1 0 0 0 1 2 3 2 2 2 2 2 2 3 3 3 3 3 2 2 2 2 3 3 1 0 0 0 0 0 1 1 1 0 nan nan nan 0 0 0 nan nan nan nan 0 0 1 1 0 1 1 nan nan nan nan nan 0 nan nan nan nan nan nan nan nan nan nan nan nan nan nan nan nan nan nan nan nan nan 1 1 5 2 nan nan nan
0 nan nan 0 0 2 2 2 2 2 2 2 3 3 5 5 6 6 4 3 3 3 4 2 2 1 0 0 0 0 0 1 1 1 1 1 nan nan nan nan nan nan nan nan nan nan nan 0 0 nan nan nan nan nan nan nan nan nan nan nan nan nan nan nan nan nan nan nan nan nan nan nan nan nan nan nan nan nan nan nan nan nan 0 nan nan nan
nan nan 0 1 1 2 2 2 2 2 3 2 3 3 7 7 6 6 7 6 6 5 3 2 2 0 0 0 0 0 0 0 0 0 0 3 3 3 nan nan nan nan nan nan nan nan nan nan nan 0 0 nan nan nan nan nan nan nan 0 0 0 nan nan nan nan nan nan nan nan nan nan nan nan nan nan nan nan nan nan nan nan nan nan nan nan nan
0 0 1 1 1 2 2 3 3 3 3 4 5 5 7 7 7 7 8 5 5 4 6 2 2 0 0 0 0 0 0 0 nan nan nan 0 0 0 0 0 0 nan nan nan nan nan nan nan nan nan nan nan nan nan nan nan nan nan nan 0 0 nan nan nan nan nan nan nan nan nan nan nan nan nan nan nan nan nan nan nan nan nan nan nan nan nan
0 1 1 2 2 2 3 3 3 3 3 3 3 3 5 7 8 8 8 6 6 6 5 2 2 0 0 1 0 0 0 nan nan nan nan nan nan nan nan nan nan 0 nan nan nan nan nan nan nan nan nan nan nan nan nan nan nan nan nan nan nan nan nan nan nan nan nan nan nan nan nan nan nan nan nan nan nan nan nan nan nan nan nan nan nan nan
2 2 2 3 3 3 4 3 3 3 4 3 3 3 5 5 5 5 3 3 3 2 1 0 0 0 0 1 0 0 nan nan nan nan 0 nan nan nan nan nan nan nan 0 0 0 0 nan nan nan nan nan nan nan nan nan nan nan nan nan nan nan nan nan nan nan nan nan nan nan nan nan nan nan nan nan nan nan nan nan nan nan nan nan nan nan nan
3 4 4 4 4 4 4 4 5 5 5 3 4 4 2 5 8 8 1 1 1 0 0 nan nan 0 0 1 1 1 1 2 0 0 nan nan nan nan nan nan nan nan nan 0 0 0 0 1 1 1 nan nan nan nan nan nan nan nan nan nan nan nan nan nan nan nan nan nan nan nan nan nan nan nan nan nan nan nan nan nan nan nan nan nan nan nan
5 4 5 5 5 4 3 4 6 6 4 2 1 1 1 1 0 0 1 1 1 1 1 0 0 0 0 0 2 2 2 1 0 0 nan nan nan nan 0 nan nan nan nan nan nan nan nan 0 0 5 12 3 nan nan nan nan nan nan nan nan nan nan nan nan nan nan nan nan nan nan nan nan nan nan nan nan nan nan nan nan nan nan nan nan nan 0
4 3 2 2 2 2 3 3 2 2 2 1 0 0 0 0 0 0 nan 0 0 1 1 2 2 1 3 1 3 3 3 1 0 0 0 nan nan nan nan nan nan nan nan nan nan nan nan nan nan nan 10 25 5 5 nan nan nan nan nan nan nan nan nan nan nan nan nan nan nan nan nan nan nan nan nan nan nan nan nan nan nan nan nan nan nan 0
CIN
-0 -0 -0 -0 -0 -0 -0 -0 -0 -0 -0 -0 -0 -0 -0 -6 -1 -1 -0 -0 -0 -0 -1 -0 -0 -0 -0 -8 -5 -5 -1 -0 -0 -0 -0 -0 -0 -0 -1 -3 -3 -3 -1 -0 -0 -0 -0 -0 -0 -0 -1 -0 -0 -0 -0 -0 -0 -0 -0 -0 -0 -0 -0 -0 -0 -0 -0 -0 -0 -0 -0 -4 nan nan nan nan nan nan nan -2 -2 -1 -0 -0 -0 -0
-0 -0 -0 -0 -0 -0 -0 -0 -0 -0 -0 -11 -0 -0 -0 -0 -0 -0 -21 -8 -8 -0 -10 -0 -0 -0 -0 -1 -0 -0 -0 -0 -0 -0 -0 -0 -0 -0 -1 -4 -4 -6 -5 -2 -2 -0 -0 -0 -0 -1 -2 -2 -0 -0 -0 -0 -0 -0 -0 -0 -0 -0 -0 -0 -0 -0 -2 -1 -4 -4 -7 nan nan nan nan -10 -9 -9 -6 -2 -2 -1 -0 -0 -0 -0
-0 -0 -0 -0 -0 -0 -0 -0 -0 -0 -0 -20 -15 -15 -0 -0 -0 -0 -0 -33 -33 -25 -22 -1 -1 -0 -0 -2 -0 -0 -0 -0 -0 -0 -0 -0 -0 -0 -1 -2 -2 -4 -7 -5 -5 -1 -0 -0 -0 -4 -6 -5 -3 -3 -1 -1 -1 -2 -2 -2 -2 -1 -0 -0 -0 -1 -2 -5 -10 -10 nan nan nan nan nan -2 -4 -4 -5 -2 -2 -1 -0 -0 -0 -0
-12 -9 -0 -0 -0 -0 -0 -0 -0 -0 -1 -16 -0 -0 -0 -0 -0 -0 -0 -26 -26 -31 -22 -6 -6 -0 -0 -3 -0 -0 -0 -0 -0 -0 -0 -0 -0 -0 -0 -1 -1 -2 -3 -5 -5 -4 -1 -4 -4 nan nan nan nan nan nan -3 -3 -3 -3 -3 -3 -4 -4 -5 -5 -5 -7 nan nan nan nan nan nan nan nan nan nan nan -2 -2 -2 -1 -0 -0 -0 -0
-10 -5 -0 -0 -0 -0 -0 -0 -0 -0 -0 -0 -0 -0 -0 -1 -0 -0 -0 -18 -18 -27 -24 -13 -13 -2 -0 -0 -1 -1 -0 -0 -0 -0 -0 -0 -1 -1 -0 -0 -0 -0 -1 nan nan nan -4 nan nan nan nan nan nan nan nan nan nan -4 -3 -4 -4 -5 nan nan nan nan nan nan nan nan nan nan nan nan nan nan nan nan nan -0 -0 -0 -0 -0 -0 -0
-8 -5 -0 -0 -0 -0 -0 -0 -12 -12 -19 -3 -6 -6 -10 -12 -0 -0 -0 -0 -0 -0 -7 -18 -18 -10 -0 -0 -6 -6 -0 -0 -0 -0 -0 -0 -0 -0 -0 -0 -0 -0 nan nan nan nan nan nan nan nan nan nan nan nan nan -6 -6 -5 -4 -5 -5 -6 nan nan nan nan nan nan nan nan nan nan nan nan nan nan nan nan nan nan nan -0 -0 -0 -0 -0
-5 -6 -1 -0 -0 -0 -0 -0 -0 -0 -0 -5 -12 -12 -22 -18 -9 -9 -0 -0 -0 -0 -0 -8 -8 -14 -12 -9 -5 -5 -2 -0 -0 -0 -0 -0 -0 -0 -0 -0 -0 -0 nan nan nan nan nan nan nan nan nan nan nan nan nan -5 -5 -4 -4 -5 -5 -5 nan nan nan nan nan nan nan nan nan nan nan nan nan nan nan nan nan nan nan nan -0 -0 -0 -0
-0 -3 -7 -4 -4 -4 -5 -5 -0 -0 -12 -10 -10 -10 -9 -5 -0 -0 -7 -5 -5 -5 -2 -0 -0 -0 -11 -12 -12 -12 -11 -10 -9 -9 -5 -1 -0 -0 -0 -0 -0 -0 -0 -0 -0 -0 -0 -1 -1 -1 -1 -1 -1 -1 -1 -2 -2 -3 -3 -4 -4 -5 nan nan nan nan nan nan nan nan nan nan nan nan nan nan nan nan nan nan nan nan nan -0 -0 -0
-0 -0 -2 -1 -1 -0 -3 -7 -12 -12 -24 -12 -10 -10 -8 -4 -0 -0 -3 -3 -3 -3 -2 -3 -3 -3 -8 -13 -12 -12 -10 -5 -10 -10 -6 -2 -0 -0 -0 -0 -0 -0 -2 -1 -1 -2 -2 -3 -3 -2 -1 -1 -0 -0 -1 -2 -2 -3 -4 -4 -4 nan nan nan nan nan nan nan nan nan nan nan nan nan nan nan nan nan nan nan nan nan nan -0 -0 -0
-2 -1 -1 -1 -1 -1 -2 -6 -0 -0 -12 -7 -3 -3 -4 -6 -4 -4 -2 -0 -0 -0 -0 -0 -0 -1 -2 -15 -14 -14 -12 -8 -0 -0 -0 -3 -0 -0 -2 -4 -4 -0 -3 -1 -1 -1 -2 -2 -2 -1 -1 -1 -1 -1 -2 -3 -3 -4 -4 nan nan nan nan nan nan nan nan nan nan nan nan nan nan nan nan nan nan nan nan nan nan nan nan nan nan -0
-0 -1 -2 -2 -2 -2 -10 -8 -3 -3 -6 -1 -6 -6 -5 -6 -4 -4 -2 -0 -0 -0 -0 -0 -0 -2 -0 -0 -16 -16 -6 -5 -6 -6 -2 -8 -9 -9 -9 -8 -8 -6 -3 -0 -0 -0 -0 -0 -0 -0 -0 -0 -1 -1 -2 -4 -4 -4 -5 nan nan nan nan nan nan nan nan nan nan nan nan nan nan nan nan nan nan nan nan nan nan nan nan nan nan -0
-0 -0 -0 -7 -7 -8 -7 -7 -10 -10 -5 -0 -1 -1 -1 -3 -7 -7 -4 -1 -1 -0 -0 -0 -0 -7 -5 -0 -1 -1 -3 -0 -0 -0 -5 -5 -4 -4 -1 -2 -2 -5 -2 -1 -1 -0 -0 -0 -0 -0 -0 -0 -1 -1 -2 -3 -3 -4 -4 nan nan nan nan nan nan nan nan nan nan nan nan nan nan nan nan nan nan nan nan nan nan nan nan nan nan nan
-0 -0 -2 -8 -8 -7 -2 -1 -3 -3 -4 -0 -1 -1 -2 -0 -8 -8 -10 -3 -3 -0 -0 -0 -0 -2 -5 -0 -0 -0 -0 -0 -0 -0 -0 -1 -0 -0 -0 -0 -0 -0 -0 -0 -0 -0 -0 -1 -1 -1 -1 -0 -1 -1 -2 -2 -2 -2 -2 -2 -2 -1 -1 -1 -1 -1 -1 -1 nan nan nan nan nan nan nan nan nan nan nan nan nan nan nan nan nan nan
-0 -0 -6 -7 -7 -5 -0 -2 -0 -0 -1 -1 -0 -0 -0 -2 -1 -1 -6 -3 -3 -0 -0 -1 -1 -0 -0 -0 -3 -3 -2 -0 -0 -0 -0 -0 -2 -2 -1 -0 -0 -0 -0 -0 -0 -0 -0 -0 -0 -0 -3 -0 -1 -1 -1 -1 -1 -1 -0 -0 -0 -0 -0 -0 -0 -0 -0 -0 -0 -0 nan nan nan nan nan nan nan nan nan nan nan nan nan nan nan nan
-0 -1 -0 -1 -1 -3 -3 -4 -0 -0 -0 -0 -0 -0 -2 -2 -4 -4 -13 -6 -6 -0 -1 -0 -0 -0 -0 -0 -16 -16 -16 -6 -2 -2 -0 -0 -10 -10 -10 -2 -2 -0 -0 -0 -0 -0 -0 -0 -0 -0 -0 -0 -0 -0 -2 -0 -0 -2 -1 -0 -0 -0 -0 -0 -0 -0 -0 -0 -0 -0 -0 nan nan nan nan nan nan nan nan nan nan nan nan nan nan nan
-2 -0 -0 -0 -0 -2 -2 -0 -0 -0 -0 -0 -0 -0 -2 -2 -7 -7 -8 -3 -3 -4 -4 -2 -2 -2 -1 -0 -9 -9 -10 -2 -0 -0 -0 -0 -0 -0 -7 -4 -4 -1 -0 -0 -0 -0 -1 -0 -0 -0 -0 -2 -8 -8 nan -0 -0 -2 -1 -0 -0 -0 -0 -0 -0 -0 -0 -0 -0 -0 -0 nan nan nan nan nan nan nan nan nan nan nan nan nan nan nan
-0 -1 -0 -0 -0 -3 -1 -2 -1 -1 -0 -0 -2 -2 -2 -5 -6 -6 -5 -6 -6 -2 -1 -1 -1 -0 -2 -0 -0 -0 -1 -0 -0 -0 -0 -0 -0 -0 -3 -4 -4 -1 -0 -0 -0 -0 -0 -0 -0 -0 -0 -2 -7 -7 nan -1 -1 -0 -0 -0 -0 -0 -0 -0 -0 -0 -0 -0 -0 -0 -1 nan nan nan nan nan nan nan nan nan nan nan nan nan nan nan
-0 -0 -2 -1 -1 -2 -1 -0 -0 -0 -5 -1 -2 -2 -8 -8 -5 -5 -4 -4 -4 -3 -2 -1 -1 -1 -3 -0 -0 -0 -4 -0 -0 -0 -1 -0 -0 -0 -4 -6 -6 -2 -0 -0 -0 -0 -0 -1 -1 -3 -0 -4 -4 -4 nan -0 -0 -0 -0 -0 -0 -0 -0 -0 -0 -0 -0 -0 -1 -1 nan nan nan nan nan nan nan nan nan nan nan nan nan nan nan nan
-3 -1 -4 -3 -3 -4 -2 -1 -2 -2 -1 -0 -0 -0 -3 -5 -5 -5 -4 -0 -0 -3 -4 -2 -2 -2 -0 -0 -0 -0 -13 -1 -6 -6 -3 -2 -0 -0 -2 -8 -8 -3 -0 -0 -0 -1 -2 -3 -3 -2 -1 -2 -0 -0 -0 -0 -0 -0 -0 -0 -0 -0 -0 -0 -0 -0 -0 -0 nan nan nan nan nan nan nan nan nan nan nan nan nan nan nan nan nan nan
-2 -1 -7 -4 -4 -3 -1 -0 -0 -0 -0 -0 -2 -2 -11 -10 -7 -7 -3 -0 -0 -2 -4 -4 -4 -1 -0 -0 -0 -0 -10 -5 -4 -4 -2 -0 -0 -0 -2 -9 -9 -2 -0 -0 -0 -2 -1 -1 -1 -1 -1 -1 -0 -0 -0 -0 -0 -0 -0 -0 -0 -0 -0 -0 -0 -0 -0 -0 nan nan nan nan nan nan nan nan nan nan nan nan nan nan nan nan nan nan
-3 -0 -3 -0 -0 -5 -1 -0 -0 -0 -0 -11 -15 -15 -14 -8 -4 -4 -1 -1 -1 -4 -11 -4 -4 -1 -0 -0 -6 -6 -8 -1 -1 -1 -0 -1 -3 -3 -6 -6 -6 -0 -0 -0 -0 -1 -0 -0 -0 -0 -0 -1 -0 -0 -0 -0 -0 -0 -0 -0 -0 -0 -0 -0 -0 -0 -0 -0 nan nan nan nan nan nan nan nan nan nan nan nan nan nan nan nan nan nan
-2 -4 -4 -5 -5 -8 -4 -2 -1 -1 -5 -8 -4 -4 -3 -2 -0 -0 -1 -2 -2 -3 -3 -2 -2 -2 -1 -7 -12 -12 -3 -0 -1 -1 -0 -1 -2 -2 -5 -0 -0 -0 -0 -0 -0 -0 -0 -0 -0 -0 -0 -0 -0 -0 -0 -0 -0 -0 -0 -0 -0 -0 -0 -0 -0 -0 -0 -0 nan nan nan nan nan nan nan nan nan nan nan nan nan nan nan nan nan nan
-2 -6 -8 -8 -8 -4 -3 -5 -4 -4 -3 -2 -1 -1 -0 -0 -0 -0 -0 -0 -0 -0 -0 -0 -0 -1 -2 -2 -2 -2 -0 -0 -0 -0 -0 -0 -3 -3 -3 -0 -0 -0 -0 -2 -2 -0 -0 -0 -0 -0 -0 -0 -0 -0 -0 -0 -0 -0 -0 -0 -0 -0 -0 -0 -0 -0 -0 -0 nan nan nan nan nan nan nan nan nan nan nan nan nan nan nan nan nan nan
-4 -5 -7 -9 -9 -6 -3 -2 -3 -3 -2 -1 -0 -0 -0 -0 -0 -0 -0 -0 -0 -1 -1 -0 -0 -0 -0 -0 -0 -0 -1 -1 -0 -0 -0 -0 -2 -2 -3 -0 -0 -1 -4 -5 -5 -0 -0 -0 -0 -0 -0 -0 -0 -0 -0 -0 -0 -0 -0 -0 -0 -0 -0 -0 -0 -0 -0 -0 nan nan nan nan nan nan nan nan nan nan nan nan nan nan nan nan nan nan
-2 -2 -0 -2 -2 -7 -4 -1 -1 -1 -3 -3 -3 -3 -0 -0 -0 -0 -0 -3 -3 -2 -1 -0 -0 -0 -0 -0 -0 -0 -0 -0 -0 -0 -0 -0 -0 -0 -2 -2 -2 -6 -5 -4 -4 -0 -0 -0 -0 -0 -0 -0 -0 -0 -0 -0 -0 -0 -0 -0 -0 -0 -0 -0 -0 -0 -0 -0 nan nan nan nan nan nan nan nan nan nan nan nan nan nan nan nan nan nan
-0 -0 -0 -0 -0 -0 -0 -0 -0 -0 -0 -0 -1 -1 -0 -0 -0 -0 -6 -6 -6 -3 -1 -1 -1 -1 -3 -1 -1 -1 -0 -0 -0 -0 -0 -2 -5 -5 -5 -13 -13 -9 -4 -3 -3 -0 -0 -0 -0 -0 -0 -0 -0 -0 -0 -0 -0 -0 -0 -0 -0 -0 -0 -0 -0 -0 -0 -0 nan nan nan nan nan nan nan nan nan nan nan nan nan nan nan nan nan nan
-0 -0 -0 -0 -0 -0 -0 -0 -0 -0 -0 -0 -0 -0 -0 -3 -7 -7 -3 -5 -5 -2 -1 -0 -0 -2 -2 -1 -0 -0 -0 -2 -0 -0 -0 -3 -4 -4 -9 -17 -17 -6 -2 -1 -1 -0 -0 -0 -0 -0 -0 -0 -0 -0 -0 -0 -0 -0 -0 -0 -0 -0 -0 -0 -0 -0 -0 -0 nan nan nan nan nan nan nan nan nan nan nan nan nan nan nan nan nan nan
-0 -0 -0 -0 -0 -0 -0 -0 -0 -0 -0 -0 -0 -0 -0 -12 -6 -6 -1 -2 -2 -3 -1 -0 -0 -1 -1 -0 -0 -0 -1 -9 -2 -2 -0 -2 -3 -3 -4 -11 -11 -5 -2 -0 -0 -0 -0 -0 -0 -0 -0 -0 -0 -0 -0 -0 -0 -0 -0 -0 -0 -0 -0 -0 -0 -0 -0 -0 nan nan nan nan nan nan nan nan nan nan nan nan nan nan nan nan nan nan
-0 -0 -0 -0 -0 -0 -0 -0 -0 -0 -0 -0 -0 -0 -0 -8 -1 -1 -1 -0 -0 -4 -1 -0 -0 -1 -1 -2 -0 -0 -0 -4 -0 -0 -0 -3 -3 -3 -2 -6 -6 -2 -1 -0 -0 -0 -0 -0 -0 -0 -0 -0 -0 -0 -0 -0 -0 -0 -0 -0 -0 -0 -0 -0 -0 -0 -0 -0 -0 -0 nan nan nan nan nan nan nan nan nan nan nan nan nan nan nan nan
-0 -0 -0 -0 -0 -0 -0 -0 -0 -0 -0 -0 -0 -0 -0 -8 -1 -1 -1 -3 -3 -2 -0 -0 -0 -0 -2 -3 -5 -5 -5 -3 -6 -6 -0 -1 -2 -2 -5 -4 -4 -1 -0 -0 -0 -0 -0 -0 -0 -0 -0 -0 -0 -0 -0 -0 -0 -0 -0 -0 -0 -0 -0 -0 -0 -0 -0 -0 -0 -0 nan nan nan nan nan nan nan nan nan nan nan nan nan nan nan nan
-0 -0 -0 -0 -0 -0 -0 -0 -0 -0 -0 -0 -0 -0 -0 -7 -2 -2 -2 -2 -2 -1 -0 -0 -0 -1 -1 -1 -2 -2 -5 -9 -9 -9 -11 -1 -2 -2 -5 nan nan -1 -0 -0 -0 -0 -0 -0 -0 -0 -0 -0 -0 -0 -0 -0 -0 -0 -0 -0 -0 -0 -0 -0 -0 -0 -0 -0 -0 -0 nan nan nan nan nan nan nan nan nan nan nan nan nan nan nan nan
-0 -1 -1 -0 -0 -0 -0 -0 -1 -1 -1 -0 -0 -0 -0 -2 -3 -3 -2 -1 -1 -1 -1 -1 -1 -1 -1 -1 -2 -2 -5 -2 -9 -9 nan nan nan nan -4 nan nan nan nan nan nan -0 -0 -0 -0 -0 -0 -0 -0 -0 -0 -0 -0 -0 -0 -0 -0 -0 -0 -0 -0 -0 -0 -0 -0 -0 -0 -0 nan nan nan nan nan nan nan nan nan nan nan nan nan nan
-0 -1 -0 -0 -0 -1 -2 -2 -4 -4 -3 -3 -2 -2 -2 -1 -0 -0 -1 -1 -1 -2 -1 -1 -1 -1 -1 -2 -4 -4 -5 -7 -7 -7 -1 nan -2 -2 -2 nan nan -1 nan -0 -0 -0 -0 -0 -0 -0 -0 -0 -0 -0 -0 -0 -0 -0 -0 -0 -0 -0 -0 -0 -0 -0 -0 -0 -0 -0 -0 -0 -0 -0 nan nan nan nan nan nan nan nan nan nan nan nan
-0 -0 -0 -1 -1 -2 -2 -2 -2 -2 -2 -2 -2 -2 -3 -3 -3 -3 -2 -4 -4 -4 -3 -2 -2 -1 -2 -3 -3 -3 -4 -5 -10 -10 -1 nan nan nan nan nan nan -1 -1 -0 -0 -0 -0 -0 -0 -0 -0 -0 -0 -0 -0 -0 -0 -0 -0 -0 -0 -0 -0 -0 -0 -0 -0 -0 -0 -0 -0 -0 -0 -0 -0 -0 -0 -0 nan nan nan nan nan nan nan nan
-0 -0 -0 -1 -1 -1 -2 -3 -1 -1 -1 -1 -1 -1 -1 -2 -3 -3 -4 -4 -4 -4 -4 -4 -4 -3 -3 -2 -2 -2 -2 -5 -12 -12 -1 nan nan nan nan nan nan nan nan -0 -0 -0 -0 -0 -0 -0 -0 -0 -0 -0 -0 -0 -0 -0 -0 -0 -0 -0 -0 -0 -0 -0 -0 -1 -0 -0 -0 -0 -1 -1 -0 -0 -0 -0 -0 -0 -0 nan nan nan nan nan
-0 -0 -1 -2 -2 -2 -1 -1 -1 -1 -0 -1 -1 -1 -1 -1 -1 -1 -1 -2 -2 -1 -1 -2 -2 -3 -4 -4 -3 -3 -4 -10 -14 -14 nan nan nan nan nan nan nan nan nan -0 -0 -0 -0 -0 -0 -0 -0 -0 -0 -0 -0 -0 -0 -0 -0 -0 -0 -0 -0 -0 -0 -1 -1 -1 -1 -1 -1 -1 -0 -0 -0 -0 -0 -0 -0 -0 -0 -0 -0 nan nan nan
-0 -1 -2 -2 -2 -2 -1 -1 -1 -1 -1 -1 -2 -2 -3 -2 -2 -2 -2 -2 -2 -2 -2 -1 -1 -1 -2 -4 -3 -3 -5 -14 -30 -30 nan nan nan nan nan nan nan -2 nan -1 -1 -0 -0 -0 -0 -0 -0 -0 -0 -0 -0 -0 -0 -0 -0 -0 -0 -1 -1 -0 -0 -0 -0 -0 -0 -0 -0 -0 -0 -0 -0 -0 -0 -0 -0 -0 -0 -0 -0 -0 -0 -0
-0 -1 -2 -3 -3 -2 -2 -2 -2 -2 -2 -2 -3 -3 -4 -3 -3 -3 -3 -3 -3 -3 -3 -4 -4 -4 -2 -2 -3 -3 -4 -10 nan nan nan nan nan nan nan nan nan -1 -0 -0 -0 -0 -0 -0 -0 -0 -0 -0 -0 -0 -0 -0 -0 -0 -0 -1 -1 nan nan -1 -1 -0 -0 -0 -0 -0 -0 -1 nan nan nan -0 -1 -1 -1 -1 -1 -0 -0 -0 -0 -0
-2 -2 -3 -3 -3 -2 -2 -2 -3 -3 -3 -4 -5 -5 -4 -2 -2 -2 -2 -2 -2 -2 -2 -3 -3 nan nan nan -3 -3 -8 nan nan nan nan nan nan nan nan nan nan -0 -0 -0 -0 -0 -0 -0 -0 -1 nan nan -0 -0 -0 -0 -0 -0 -0 nan nan nan nan nan nan -0 -0 -1 -0 -0 -1 nan nan nan nan nan nan nan nan -1 -1 -0 -0 -1 -1 -0
-1 -1 -1 -1 -1 -3 -3 -3 -3 -3 -4 -3 nan nan -1 -0 -0 -0 -0 -0 -0 -0 -0 -0 -0 nan -0 -0 -0 -0 nan nan nan nan nan nan nan nan nan nan nan -0 -0 -0 -0 -0 -0 -0 -0 -0 -0 -0 -0 -0 nan -0 -0 -0 -0 nan nan nan nan nan nan nan -1 nan -1 -1 nan nan nan nan nan nan nan nan nan nan nan nan nan nan nan nan
-0 -0 -1 -1 -1 -2 -3 -1 nan nan nan nan -0 -0 -0 -0 -0 -0 -0 -0 -0 -0 -0 -0 -0 -0 -0 -0 -0 -0 -0 nan nan nan nan nan nan nan nan nan nan nan -0 nan nan nan nan nan nan -0 -0 -0 -0 -0 -0 -0 -0 -0 -0 nan nan nan nan nan nan nan nan nan nan nan -1 nan nan nan nan nan nan nan nan nan nan nan nan nan nan nan
-0 -0 -0 -0 -0 -0 -0 -0 -0 -0 -0 -0 -0 -0 -0 -0 -0 -0 -0 -0 -0 -0 -0 -0 -0 -0 -0 -0 -0 -0 -0 -0 nan nan nan nan nan nan nan nan nan -0 nan nan nan nan nan -0 -0 -0 -0 -0 nan nan nan -0 -0 -0 -0 nan nan nan nan nan nan nan nan nan nan nan -0 nan nan nan nan nan nan nan nan nan nan -0 -1 nan nan nan
-0 -0 -0 -0 -0 -0 -0 -0 -0 -0 -0 -0 -0 -0 -0 -0 -0 -0 -0 -0 -0 -0 -0 -0 -0 -0 -0 -0 -0 -0 -0 -0 -0 -0 -0 nan nan nan -0 -0 -0 nan nan nan nan -0 -1 -0 -0 -0 -0 -0 nan nan nan nan nan -0 nan nan nan nan nan nan nan nan nan nan nan nan nan nan nan nan nan nan nan nan nan -0 -0 -0 -0 nan nan nan
-0 nan nan -0 -0 -0 -0 -0 -0 -0 -0 -0 -0 -0 -0 -0 -0 -0 -0 -0 -0 -0 -0 -0 -0 -0 -0 -0 -0 -0 -0 -0 -0 -0 -0 -0 nan nan nan nan nan nan nan nan nan nan nan -0 -0 nan nan nan nan nan nan nan nan nan nan nan nan nan nan nan nan nan nan nan nan nan nan nan nan nan nan nan nan nan nan nan nan nan -0 nan nan nan
nan nan -0 -0 -0 -0 -0 -0 -0 -0 -0 -0 -0 -0 -0 -0 -0 -0 -0 -0 -0 -0 -0 -0 -0 -0 -0 -0 -0 -0 -0 -0 -0 -0 -0 -0 -0 -0 nan nan nan nan nan nan nan nan nan nan nan -0 -0 nan nan nan nan nan nan nan -0 -0 -0 nan nan nan nan nan nan nan nan nan nan nan nan nan nan nan nan nan nan nan nan nan nan nan nan nan
-0 -0 -0 -0 -0 -0 -0 -0 -0 -0 -0 -0 -0 -0 -0 -0 -0 -0 -0 -0 -0 -0 -0 -0 -0 -0 -0 -0 -0 -0 -0 -0 nan nan nan -0 -0 -0 -0 -0 -0 nan nan nan nan nan nan nan nan nan nan nan nan nan nan nan nan nan nan -0 -0 nan nan nan nan nan nan nan nan nan nan nan nan nan nan nan nan nan nan nan nan nan nan nan nan nan
-0 -0 -0 -0 -0 -0 -0 -0 -0 -0 -0 -0 -0 -0 -0 -0 -0 -0 -0 -0 -0 -0 -0 -0 -0 -0 -0 -0 -0 -0 -0 nan nan nan nan nan nan nan nan nan nan -0 nan nan nan nan nan nan nan nan nan nan nan nan nan nan nan nan nan nan nan nan nan nan nan nan nan nan nan nan nan nan nan nan nan nan nan nan nan nan nan nan nan nan nan nan
-0 -0 -0 -0 -0 -0 -0 -0 -0 -0 -0 -0 -0 -0 -0 -0 -0 -0 -0 -0 -0 -0 -0 -0 -0 -0 -0 -0 -0 -0 nan nan nan nan -0 nan nan nan nan nan nan nan -0 -0 -0 -0 nan nan nan nan nan nan nan nan nan nan nan nan nan nan nan nan nan nan nan nan nan nan nan nan nan nan nan nan nan nan nan nan nan nan nan nan nan nan nan nan
-0 -0 -0 -0 -0 -0 -0 -0 -0 -0 -0 -0 -0 -0 -0 -0 -0 -0 -0 -0 -0 -1 -0 nan nan -0 -0 -0 -0 -0 -0 -0 -0 -0 nan nan nan nan nan nan nan nan nan -1 -1 -1 -0 -0 -0 -0 nan nan nan nan nan nan nan nan nan nan nan nan nan nan nan nan nan nan nan nan nan nan nan nan nan nan nan nan nan nan nan nan nan nan nan nan
-0 -0 -0 -0 -0 -0 -0 -0 -0 -0 -0 -0 -0 -0 -0 -0 -0 -0 -0 -0 -0 -0 -0 -0 -0 -0 -0 -0 -0 -0 -0 -0 -0 -0 nan nan nan nan -0 nan nan nan nan nan nan nan nan -1 -1 -0 -0 -0 nan nan nan nan nan nan nan nan nan nan nan nan nan nan nan nan nan nan nan nan nan nan nan nan nan nan nan nan nan nan nan nan nan -1
-0 -0 -0 -0 -0 -0 -0 -0 -0 -0 -0 -0 -0 -0 -0 -0 -0 -0 nan -0 -0 -0 -0 -0 -0 -0 -0 -0 -0 -0 -0 -0 -0 -0 -0 nan nan nan nan nan nan nan nan nan nan nan nan nan nan nan -0 -0 -0 -0 nan nan nan nan nan nan nan nan nan nan nan nan nan nan nan nan nan nan nan nan nan nan nan nan nan nan nan nan nan nan nan -0
Wind_Speed
12 12 13 16 16 16 15 17 17 16 15 13 13 13 13 13 14 15 18 18 19 18 17 17 18 19 20 22 24 26 28 29 30 31 31 31 31 30 28 25 23 21 20 19 19 19 19 19 18 19 20 21 23 24 25 26 27 27 27 27 27 27 27 27 27 26 25 25 24 24 23 23 22 23 23 23 23 23 23 23 24 24 26 27 29 29
13 12 13 16 18 17 15 16 17 17 16 14 13 13 13 14 14 13 14 16 17 17 16 16 17 19 20 21 24 27 29 30 31 31 31 31 31 30 28 27 26 24 23 22 22 22 22 21 21 21 21 22 23 25 26 27 27 28 27 27 27 27 27 27 27 26 26 25 24 23 22 21 22 22 23 24 24 24 24 24 24 25 26 28 29 29
12 12 12 15 16 17 15 15 16 17 18 16 14 14 16 17 15 13 12 13 14 14 14 15 16 18 20 20 23 27 29 30 31 30 30 30 29 29 28 27 27 26 25 25 24 24 24 24 23 23 23 23 24 25 26 27 27 27 27 26 26 26 26 26 26 26 25 24 23 22 21 21 22 23 24 25 25 25 24 24 25 26 27 29 30 31
11 12 12 12 13 15 15 15 15 15 15 15 16 17 18 17 14 13 12 13 13 13 13 15 16 17 17 18 20 24 27 29 29 29 29 28 28 27 27 27 27 27 27 27 26 26 26 25 24 24 24 25 25 26 27 27 26 26 25 25 24 24 24 24 24 24 24 24 23 22 22 22 23 24 25 26 26 26 26 26 26 27 29 30 31 32
11 11 11 11 11 13 15 15 14 14 13 14 15 16 16 14 13 12 13 14 14 15 14 14 15 16 16 15 17 21 25 27 28 28 28 28 28 28 28 28 29 29 29 29 28 28 27 26 25 25 25 26 26 27 27 26 26 25 24 24 23 23 23 23 23 23 23 24 23 23 23 24 24 25 26 27 27 27 27 27 28 29 30 31 32 33
11 11 11 10 10 11 11 12 12 12 12 12 13 13 12 12 11 12 12 13 14 14 14 13 14 15 15 15 16 19 23 25 27 28 28 28 29 29 30 30 31 31 31 31 30 29 27 27 26 26 26 26 27 26 26 26 25 24 24 23 23 23 23 23 23 24 24 24 24 24 24 25 25 26 26 27 27 27 27 28 28 29 31 32 33 34
11 11 10 10 10 10 10 10 11 11 11 10 11 11 11 11 11 12 13 13 13 13 13 13 13 14 14 15 16 18 20 23 25 27 28 29 29 30 30 31 32 32 31 30 29 28 27 26 26 26 26 26 26 26 26 25 24 24 23 23 24 24 24 24 24 24 24 24 24 25 25 25 25 26 26 26 26 27 27 28 29 30 31 32 33 34
11 10 10 10 10 10 10 10 10 11 11 10 10 10 10 10 11 12 13 13 13 12 12 12 13 13 13 13 14 15 16 18 19 21 23 24 26 27 28 29 30 30 29 28 27 26 26 25 25 25 25 25 25 25 25 25 24 24 23 24 24 24 24 24 24 24 25 25 25 25 25 26 26 26 26 26 26 26 27 27 28 29 30 32 33 34
11 11 10 11 11 10 10 10 10 11 11 11 11 10 10 10 10 11 11 12 12 12 11 12 12 12 12 12 12 13 14 15 15 16 17 17 19 21 23 24 25 26 25 25 25 24 24 24 24 24 24 24 25 25 25 24 24 23 23 24 24 24 24 24 25 25 25 25 25 26 26 26 26 26 26 26 26 26 26 27 28 29 30 31 32 33
12 11 11 10 10 10 10 10 10 11 12 12 12 11 10 11 10 10 11 11 11 10 10 11 12 12 11 11 11 12 13 15 17 19 20 19 19 20 21 20 20 20 21 22 23 23 24 24 24 24 24 24 24 24 24 23 23 23 23 24 24 24 25 25 25 26 26 26 26 26 26 27 27 27 27 27 26 26 26 27 27 28 29 31 32 33
12 11 11 10 10 10 10 10 10 10 12 13 12 11 10 10 10 10 11 12 11 11 10 11 11 11 11 11 11 11 12 13 15 17 20 20 21 21 20 19 19 19 20 21 22 23 24 24 24 25 24 24 24 24 23 23 23 23 23 24 24 24 25 25 26 26 26 26 26 27 27 27 27 27 27 27 27 27 26 27 27 27 28 30 31 32
11 11 10 10 9 9 10 10 9 10 11 11 11 11 11 10 10 10 11 12 11 11 11 11 11 11 11 11 10 10 11 11 12 12 13 14 15 16 16 16 16 16 17 18 19 21 22 23 23 23 23 24 24 23 23 22 22 23 23 23 24 24 25 25 25 26 26 26 27 27 27 27 28 28 28 28 28 27 27 27 27 27 27 28 30 32
11 10 10 10 10 10 10 10 9 9 10 10 10 10 10 10 9 10 10 11 11 11 11 11 11 11 11 11 10 10 11 12 12 11 11 10 11 11 11 10 10 11 11 12 13 14 17 18 19 20 20 21 22 22 22 22 22 22 23 23 23 24 24 24 25 25 26 26 27 27 28 28 28 28 28 28 29 28 28 28 28 27 27 28 29 31
11 10 10 10 10 10 10 10 10 11 11 11 11 10 10 9 10 10 10 11 11 11 11 11 11 11 10 11 11 11 11 11 11 10 10 10 10 9 8 9 9 9 9 9 9 10 11 12 12 14 16 18 19 20 20 21 21 21 21 22 22 23 23 24 24 25 26 26 27 27 28 28 28 29 29 29 29 29 29 29 29 28 28 28 29 30
10 10 10 11 10 10 10 10 11 11 11 11 11 10 10 10 10 10 10 10 10 10 10 11 12 11 10 10 10 10 9 9 9 9 10 10 9 8 7 8 9 9 8 9 9 9 9 9 9 10 11 14 15 16 16 17 18 19 19 19 20 21 22 23 23 24 25 26 27 28 28 29 29 29 29 30 30 30 30 30 30 29 29 29 29 30
10 10 11 10 10 10 10 10 11 11 11 11 11 11 11 11 10 10 9 10 10 9 9 10 10 10 9 9 10 10 9 9 9 9 10 9 8 7 7 8 9 9 8 9 8 8 8 8 9 9 9 11 12 12 12 13 14 15 16 17 18 19 21 22 23 24 26 27 28 28 29 29 30 30 30 30 30 31 31 31 30 30 29 29 29 30
11 11 11 11 11 10 10 11 11 12 11 11 11 11 10 10 10 9 10 9 9 8 8 8 8 8 7 8 9 10 10 9 9 9 9 9 8 8 8 8 9 9 9 8 8 8 7 8 8 8 8 10 10 10 9 10 11 12 14 16 17 18 20 21 22 24 25 27 28 29 30 30 31 31 31 31 31 31 31 31 31 31 30 30 30 30
12 12 11 11 11 10 10 11 12 12 11 11 11 10 10 10 10 10 10 10 9 9 8 8 7 6 6 7 7 7 8 8 8 8 8 9 8 8 7 8 8 9 9 9 8 8 7 7 7 7 8 8 8 8 8 9 10 12 14 15 16 17 18 20 21 23 24 26 28 29 30 31 31 32 32 32 32 32 32 32 32 31 31 31 30 30
12 12 11 11 10 10 10 10 11 11 11 10 10 10 10 10 10 10 11 10 10 10 9 9 8 8 8 8 7 6 5 6 6 7 8 9 8 7 7 6 7 8 9 9 8 7 7 7 7 7 8 8 7 7 8 10 11 13 14 15 16 17 17 19 20 21 23 25 27 29 30 31 32 32 32 32 32 32 32 32 32 32 31 31 31 31
13 13 12 11 11 11 11 12 12 12 11 11 10 10 10 10 10 11 11 10 10 10 10 10 10 10 10 10 9 8 6 6 6 6 8 9 8 7 6 6 7 8 8 8 7 7 6 6 5 6 7 7 7 7 9 11 12 14 15 15 15 16 17 18 19 20 22 24 26 28 29 31 31 32 32 32 32 32 32 32 32 32 32 31 31 31
14 15 14 13 12 11 11 12 13 13 14 13 12 11 10 9 10 10 10 10 10 10 9 9 10 10 9 9 9 8 6 6 6 5 5 6 6 6 5 4 5 7 7 7 6 6 5 5 4 5 6 6 7 8 9 11 13 14 15 15 16 16 17 18 19 20 21 23 24 26 28 30 31 32 32 32 32 32 32 32 32 32 31 31 30 30
15 15 15 15 14 13 12 13 14 15 15 14 12 10 8 8 9 9 9 9 9 9 10 10 10 9 9 9 8 7 5 6 6 6 4 5 6 6 3 3 4 5 7 7 6 5 4 4 4 5 6 6 7 8 10 12 13 14 15 15 16 16 17 18 19 20 21 22 23 25 27 29 30 31 31 31 31 31 31 31 31 31 31 30 30 30
17 16 16 16 15 14 13 13 13 13 12 12 12 11 9 9 9 8 7 7 7 7 8 8 9 10 10 10 8 6 5 5 5 5 5 7 7 6 3 3 4 5 7 6 5 4 4 4 4 5 5 6 7 9 10 12 13 14 15 15 16 17 18 19 20 21 22 22 23 24 26 28 29 30 30 30 30 30 30 30 30 30 30 30 30 30
18 18 17 16 15 14 13 12 11 10 9 10 10 11 11 11 10 9 7 7 7 7 7 8 9 10 10 10 10 8 7 5 5 5 6 7 7 6 4 4 5 7 8 6 5 4 4 4 4 4 4 6 7 9 10 11 13 14 15 15 16 17 18 20 22 23 23 23 23 24 26 27 28 29 29 29 29 29 29 29 29 29 29 29 29 29
17 17 16 16 16 17 16 15 15 14 12 11 10 10 11 12 12 11 9 9 8 9 9 9 10 10 9 9 9 8 6 6 6 5 5 5 6 6 6 6 6 7 7 6 5 4 4 4 4 4 4 5 6 8 9 11 12 13 14 15 16 17 19 21 23 25 25 24 23 23 24 26 27 27 27 27 27 27 27 27 27 27 27 27 27 27
21 21 21 22 24 25 26 26 25 24 22 18 15 12 12 12 11 10 9 9 10 10 11 12 12 11 10 9 8 8 6 5 6 6 5 4 5 6 7 5 4 5 6 5 5 4 4 3 3 3 3 4 5 7 9 11 12 13 14 14 16 17 19 22 24 26 26 25 23 22 23 24 25 25 25 25 25 25 25 26 26 26 26 25 25 25
32 31 32 32 33 33 33 33 33 32 32 28 24 19 15 12 10 10 10 10 10 10 12 12 11 11 11 10 10 9 7 6 6 6 5 4 6 7 7 4 3 4 6 5 4 3 3 3 3 3 3 3 4 6 9 10 12 13 13 14 15 17 19 22 24 26 27 25 22 19 19 21 22 22 22 22 23 23 23 24 24 24 24 22 21 20
38 38 37 37 37 36 36 36 36 35 35 34 33 30 22 14 11 11 12 11 10 10 11 11 11 10 10 10 9 9 9 7 6 5 5 4 5 6 6 4 3 4 5 3 3 3 3 3 2 2 3 3 4 5 7 9 11 12 12 14 15 17 19 21 23 25 27 26 22 17 15 16 18 19 20 20 20 21 22 23 23 23 22 19 15 13
36 38 38 38 38 38 38 37 36 36 36 36 36 33 25 16 13 13 13 11 10 10 11 11 10 10 9 9 9 9 9 8 6 5 5 4 5 5 5 3 3 4 4 3 2 3 3 2 2 2 2 3 4 4 5 7 8 9 10 12 14 16 19 21 22 24 26 26 24 18 11 9 13 16 17 18 18 19 20 21 21 19 16 13 11 9
27 30 32 33 34 35 34 33 32 32 34 36 36 33 26 18 14 13 12 11 10 10 11 10 10 10 9 8 8 8 8 8 6 5 6 5 5 5 4 3 4 4 3 3 3 3 3 2 1 1 2 3 3 4 4 5 6 6 7 9 11 14 17 19 21 22 24 26 25 22 16 7 3 8 12 14 16 17 17 18 16 12 8 7 5 4
19 21 21 23 25 25 25 24 24 25 27 30 30 28 23 18 14 13 11 11 11 11 11 10 10 9 9 7 7 6 6 6 5 5 7 5 4 4 4 4 4 4 4 3 3 3 2 2 1 0 1 2 3 3 4 4 5 5 6 6 7 10 15 17 18 19 20 23 25 25 24 19 14 8 2 5 9 12 14 14 12 9 6 6 5 5
16 16 16 17 17 17 17 17 16 17 18 19 20 19 18 16 15 13 12 11 11 11 11 11 10 10 9 8 8 7 6 5 4 6 7 5 4 4 4 4 4 4 4 3 3 3 2 1 1 1 1 2 2 3 3 4 5 5 5 6 6 8 12 14 15 15 16 19 21 24 25 25 24 21 16 12 9 9 11 13 12 10 8 8 7 7
15 14 13 14 13 13 13 12 12 12 13 13 13 13 14 15 15 14 12 12 11 11 11 11 11 10 10 10 9 8 8 6 5 7 9 5 4 3 4 4 4 4 4 3 3 3 2 1 1 1 0 1 1 2 3 4 5 5 5 5 5 7 10 10 11 11 12 14 16 18 21 23 25 25 24 21 17 14 12 12 11 11 10 9 9 9
15 14 13 13 12 11 11 11 11 11 11 11 11 12 12 12 13 14 13 12 12 12 11 11 11 11 10 10 9 9 9 8 6 7 10 7 4 3 4 4 5 5 5 4 3 2 1 1 1 1 1 1 1 2 3 4 5 5 5 5 5 6 7 8 8 9 10 10 11 12 14 16 19 22 23 23 22 20 18 16 14 12 11 9 9 10
13 14 13 12 11 11 11 11 11 11 11 11 11 11 11 11 11 12 13 12 12 12 12 12 11 11 11 10 9 9 10 8 7 8 10 8 5 4 3 5 5 5 5 4 3 3 2 2 2 2 2 1 1 2 3 3 4 4 5 5 6 6 7 7 7 8 8 9 9 9 10 10 12 15 18 21 23 24 24 22 20 18 16 13 11 10
12 12 12 11 11 10 10 11 11 11 11 10 10 10 10 10 10 10 10 11 11 11 11 11 11 10 10 10 10 10 10 8 6 8 10 9 7 5 4 4 5 5 5 5 4 4 3 3 3 2 2 2 1 1 2 3 3 4 5 6 6 7 7 7 7 7 7 8 8 9 9 9 10 11 14 20 24 26 28 27 27 25 23 21 18 15
11 11 11 11 10 10 10 10 10 10 10 9 9 9 10 10 10 10 9 9 9 9 9 10 10 10 11 11 11 11 11 8 6 7 11 9 7 6 4 4 5 6 5 5 5 4 4 4 3 2 2 1 1 1 1 2 3 4 5 6 6 7 7 7 7 7 7 8 8 8 9 9 9 10 11 17 20 22 25 27 28 27 28 27 26 24
10 10 10 10 10 10 10 10 9 9 9 9 9 9 10 10 10 10 9 9 10 10 10 9 10 11 14 15 14 14 13 10 8 9 12 10 7 6 5 4 5 5 5 5 5 5 4 4 4 3 2 2 2 2 2 2 3 4 5 5 6 7 7 7 8 7 7 8 9 9 10 9 9 9 9 11 11 12 15 16 18 21 24 25 27 29
10 10 10 10 10 10 10 9 9 9 9 9 8 8 8 8 8 9 8 8 9 9 9 8 7 7 8 10 11 12 10 8 9 10 11 9 7 5 5 5 5 5 4 4 4 4 4 4 3 3 3 3 3 2 2 2 3 4 4 5 6 7 8 8 8 8 7 7 8 9 9 9 9 9 9 9 9 10 10 10 11 12 13 14 18 23
9 10 10 10 10 10 9 8 7 7 6 6 6 5 5 5 5 5 6 6 5 5 5 4 3 1 1 2 2 2 1 2 5 7 7 6 5 5 5 5 6 5 5 4 3 3 3 3 3 3 4 4 3 3 3 3 3 4 4 5 5 6 8 8 8 7 7 7 8 8 8 8 9 10 10 10 10 10 9 8 8 8 9 8 9 13
8 8 8 8 7 6 5 4 3 3 3 3 3 3 4 3 3 3 3 3 3 3 3 4 3 3 3 3 4 5 5 4 4 4 4 5 5 6 5 5 5 5 5 5 4 3 4 4 4 4 3 4 4 4 4 4 5 5 6 6 5 5 6 8 8 7 7 7 8 8 9 9 10 11 11 11 11 10 9 9 9 9 8 7 7 8
8 7 6 4 2 2 1 1 2 2 3 3 3 4 4 4 4 4 4 4 4 4 4 4 4 4 4 4 5 6 6 6 6 6 6 6 7 7 6 6 5 5 6 7 6 5 5 5 5 4 4 4 4 5 5 5 5 6 6 5 5 5 6 8 7 7 7 7 7 8 10 9 9 10 10 10 10 10 11 12 12 12 11 9 9 9
5 3 2 2 2 2 2 3 3 3 3 3 4 4 4 4 4 5 5 5 4 4 4 4 4 5 5 5 5 5 6 7 8 8 8 8 8 8 8 8 7 6 6 7 7 7 6 6 5 5 4 4 5 5 6 5 5 6 6 5 5 4 4 5 5 6 7 7 7 8 8 8 8 8 9 10 10 10 11 12 14 14 13 11 10 10
2 2 2 2 2 2 3 3 3 3 3 3 3 4 4 4 5 5 4 4 4 4 4 4 4 5 6 6 6 6 6 7 8 9 9 9 9 9 9 10 9 8 7 7 7 6 6 7 6 5 5 5 5 6 6 6 6 6 7 7 7 7 5 3 4 5 6 7 7 7 7 7 7 8 9 10 10 10 10 11 11 11 12 11 11 11
2 2 2 2 3 3 3 3 3 3 3 3 3 3 3 3 4 4 3 4 4 4 4 4 5 5 6 6 6 5 5 6 7 8 9 10 12 12 11 10 10 9 9 8 7 7 7 6 6 5 5 5 6 7 7 7 7 7 7 7 8 8 6 5 5 5 6 6 7 7 7 6 7 8 10 11 11 11 10 11 11 11 10 10 11 12
2 3 3 3 3 3 3 3 3 3 2 2 2 2 2 3 3 3 3 3 4 4 4 4 4 5 6 6 5 5 5 6 6 6 6 8 9 10 11 11 10 10 9 9 9 8 7 7 6 5 5 6 7 8 7 7 7 7 7 7 7 7 7 7 6 6 6 6 6 6 6 6 7 10 12 12 11 11 10 11 11 11 11 11 11 12
2 2 3 3 2 2 2 2 3 3 3 3 3 2 2 2 3 3 3 3 3 4 4 4 5 6 6 6 5 5 6 6 6 6 6 7 8 9 10 10 11 12 11 11 10 10 9 8 7 6 6 6 7 7 7 7 7 7 6 6 6 7 8 7 7 6 6 6 6 6 5 6 9 11 12 11 11 11 10 11 11 11 11 11 11 12
2 2 2 2 2 2 2 2 3 3 3 3 3 3 3 3 3 3 3 3 3 3 4 4 5 6 6 5 5 6 6 7 7 7 6 7 7 8 9 9 10 11 12 12 13 12 12 12 11 9 7 7 7 7 7 7 7 6 6 5 6 7 8 7 7 6 7 7 8 7 6 7 9 10 11 11 11 11 10 11 11 11 11 11 11 12
2 2 2 2 2 3 3 3 3 3 4 4 4 4 4 4 4 4 3 3 3 3 4 5 6 6 6 6 5 6 7 7 7 7 6 6 7 7 8 9 9 10 11 11 12 12 12 13 14 13 11 9 8 7 7 7 6 6 5 5 6 7 8 7 7 7 7 8 9 9 9 8 8 9 9 11 11 11 10 10 10 10 10 10 11 11
3 3 3 3 3 3 3 3 3 4 4 5 5 5 4 4 4 4 4 4 4 4 5 5 6 6 6 6 6 6 6 6 6 6 6 6 6 7 8 8 9 9 9 9 9 9 9 10 12 14 16 15 12 8 6 6 6 6 6 6 6 7 7 7 7 7 8 8 9 9 10 9 8 8 9 11 12 11 11 10 10 10 10 10 11 12
3 3 3 3 3 3 3 4 4 4 5 5 5 5 5 5 5 4 4 5 5 5 5 6 6 6 7 6 6 6 6 6 6 6 6 5 6 6 7 7 8 8 9 8 7 6 6 7 8 10 14 17 17 13 7 5 5 6 6 6 6 6 7 7 7 7 8 8 8 9 10 9 9 8 8 10 10 11 10 10 10 10 9 9 10 12
Wind_Direction
270 271 272 271 271 270 269 267 267 268 268 266 266 266 266 263 263 265 267 269 270 270 271 271 271 272 273 275 277 278 278 278 277 276 275 273 273 272 272 273 275 276 277 277 278 277 273 271 270 268 267 267 267 267 267 266 265 263 262 261 260 259 258 257 256 254 253 252 251 252 252 253 253 253 253 252 251 251 250 250 249 249 248 245 241 236
266 268 269 269 270 270 271 269 268 268 268 268 268 268 268 267 267 267 268 270 271 272 274 274 274 273 273 274 275 276 275 274 273 272 271 270 269 269 269 271 271 272 272 272 272 272 272 271 270 269 268 268 267 267 266 265 264 264 263 262 262 261 261 260 260 259 258 257 256 255 254 254 254 255 255 254 253 252 251 249 248 247 245 244 242 239
267 269 268 269 269 270 271 271 270 269 270 270 270 269 269 268 267 267 268 270 271 272 272 272 272 272 271 271 271 272 271 271 270 270 269 268 268 267 268 269 270 271 271 270 269 269 268 267 267 267 266 266 266 265 264 263 261 260 260 259 259 260 260 260 261 261 260 260 259 258 257 256 256 256 257 257 257 256 254 252 250 248 246 244 242 239
263 264 264 266 267 267 267 269 270 270 269 270 270 270 269 268 266 266 266 268 269 269 267 267 267 267 267 267 267 268 269 269 269 269 269 269 268 268 268 269 270 271 271 270 269 268 266 266 265 265 265 264 264 263 262 261 259 258 256 255 255 256 257 258 258 259 259 259 259 259 258 257 257 257 257 258 258 258 258 256 254 252 249 246 243 239
256 258 260 263 264 265 265 267 268 268 268 269 269 269 269 268 267 266 266 266 266 266 264 262 261 261 262 262 263 265 268 269 270 271 271 271 270 270 270 269 269 270 270 269 268 267 266 265 264 264 263 263 263 262 261 260 258 257 255 254 254 254 254 255 256 257 257 258 258 258 257 257 257 256 257 257 258 258 259 258 257 256 253 249 245 241
255 255 258 259 261 263 264 263 264 265 266 266 266 265 265 263 263 263 262 263 264 265 265 263 261 260 260 261 264 266 269 270 271 272 272 271 271 270 269 268 268 268 268 267 267 266 265 264 263 263 262 262 262 261 261 260 258 257 256 255 254 254 254 254 255 256 256 257 257 257 257 256 256 256 255 256 256 257 258 258 258 257 255 252 248 244
259 256 257 257 257 258 259 259 259 261 264 266 265 263 260 258 256 255 256 257 260 264 266 266 264 263 262 262 265 267 269 270 271 271 270 269 268 267 266 265 265 264 264 264 264 263 263 262 262 262 262 262 262 262 261 260 259 257 256 255 255 255 254 255 255 256 256 257 257 257 257 256 255 255 255 255 255 255 256 256 257 257 256 254 250 246
265 261 256 254 253 253 253 254 256 259 263 265 265 264 260 257 255 254 254 255 257 260 263 264 264 263 262 263 264 266 267 268 268 268 268 266 265 264 263 262 262 261 261 260 260 260 261 261 261 262 262 263 262 262 261 260 258 257 256 255 255 255 254 255 255 256 256 257 257 257 257 256 256 255 254 254 254 254 254 254 255 255 255 254 251 248
270 267 259 254 252 253 254 255 256 258 261 262 261 259 258 257 257 256 256 255 255 256 259 261 262 262 261 262 262 262 262 262 262 263 263 262 262 261 261 261 260 259 259 259 259 260 261 261 262 262 262 262 262 261 260 259 257 256 255 254 254 254 254 254 255 255 256 256 256 256 256 256 256 255 255 254 254 253 253 253 253 253 253 253 251 248
268 267 265 258 255 255 258 260 260 260 259 258 256 254 254 255 257 258 257 256 254 255 256 259 261 262 262 260 259 259 260 260 260 259 259 257 257 259 260 260 260 260 260 261 261 262 262 262 262 262 262 261 261 260 258 257 256 255 254 254 254 254 254 254 254 255 255 255 256 256 256 256 256 256 255 255 254 253 252 252 251 251 251 251 250 248
263 264 265 264 262 260 260 263 263 261 256 255 254 252 249 250 254 257 258 258 257 256 257 258 259 261 263 261 259 258 259 260 260 258 257 254 254 255 256 257 259 260 262 262 262 263 262 262 261 260 260 259 259 258 256 255 254 253 253 253 254 254 254 254 254 254 255 255 255 256 256 256 256 256 256 255 255 253 252 251 250 249 249 248 248 247
260 260 261 262 264 264 262 261 260 257 252 252 251 251 249 248 249 252 256 257 258 257 258 258 258 258 259 261 262 261 260 261 260 259 256 253 251 251 253 255 257 258 260 261 261 260 260 259 258 258 257 257 256 255 254 253 252 252 252 253 253 254 254 255 255 255 256 256 256 257 257 257 256 256 256 256 255 254 252 250 248 247 246 245 245 245
255 255 255 256 257 257 257 255 253 249 247 247 249 250 251 250 249 249 252 255 256 256 258 259 259 257 256 257 257 258 258 259 259 258 255 252 251 251 254 257 258 259 260 261 260 258 257 256 256 254 253 252 252 251 250 250 250 250 251 252 253 254 255 256 256 257 257 258 258 258 258 258 257 257 257 256 255 254 252 250 248 246 244 243 242 242
254 253 251 250 248 247 247 247 247 247 247 248 249 251 253 253 253 252 254 255 255 256 257 258 258 257 255 253 252 253 254 257 258 257 253 250 250 253 258 261 263 262 262 261 260 259 259 258 256 254 250 248 248 248 246 246 247 247 249 251 253 254 256 257 258 258 259 259 259 259 259 258 258 257 256 256 255 254 252 250 248 245 243 241 240 240
256 255 253 250 247 244 243 244 245 247 248 249 250 252 253 253 252 252 253 255 255 255 255 257 257 257 256 254 251 250 251 255 256 255 252 252 251 253 256 259 260 259 257 257 259 260 260 259 258 256 252 247 245 244 242 243 244 246 248 251 254 256 258 259 259 259 259 259 259 259 258 258 257 256 255 254 254 252 251 249 247 245 242 240 239 238
257 257 257 256 254 250 247 246 246 247 248 249 249 250 251 250 249 248 249 251 251 251 251 253 255 257 255 252 249 246 245 250 252 253 255 259 258 255 250 252 254 254 252 253 255 258 258 255 254 254 253 248 244 241 238 240 245 250 254 258 260 261 262 261 261 260 259 258 258 257 257 256 255 254 254 253 252 251 250 248 246 244 241 239 237 236
254 255 256 259 259 257 255 252 250 248 248 247 247 247 248 248 248 246 245 246 247 247 246 248 252 255 257 252 246 242 241 246 250 255 260 263 261 256 248 249 251 253 252 252 254 255 256 254 251 250 250 246 241 238 239 245 253 260 264 266 267 267 266 265 263 261 259 258 256 255 254 254 253 252 251 251 250 249 248 247 245 243 241 239 236 235
251 251 253 255 257 258 259 257 254 250 247 246 246 247 247 246 245 244 243 242 243 244 245 245 246 249 255 255 249 242 239 243 249 254 258 258 256 250 243 245 249 252 253 252 254 255 255 253 250 248 247 242 240 242 247 258 265 269 272 273 274 273 272 270 266 263 260 258 256 254 252 251 251 250 249 249 248 247 246 246 244 243 241 238 236 234
250 249 250 251 252 253 255 254 253 251 248 247 247 248 248 245 243 242 241 241 241 241 243 244 245 248 251 254 253 250 241 239 243 249 252 252 250 247 241 241 244 246 247 249 251 253 253 251 246 244 243 240 243 251 262 270 275 277 279 280 281 281 281 278 273 269 264 259 256 253 251 250 249 248 247 246 246 245 245 244 243 242 240 238 236 234
251 249 248 249 251 252 251 250 250 250 251 251 251 250 248 245 242 240 239 239 239 240 241 243 245 248 251 256 257 255 243 236 240 246 250 252 254 254 250 246 243 243 245 248 251 252 251 246 241 236 235 240 249 260 272 278 282 284 286 289 290 291 291 287 283 276 270 263 258 253 250 248 247 246 245 244 243 243 242 242 241 240 239 238 236 234
253 252 250 250 252 253 252 251 251 253 255 257 256 254 249 245 242 239 238 239 241 242 242 244 246 248 252 256 257 255 245 233 234 243 254 256 256 255 252 242 239 241 247 254 257 255 246 240 238 236 234 243 256 270 280 286 289 291 294 296 299 300 300 298 293 286 278 269 261 255 250 248 245 244 243 242 241 240 240 240 239 239 238 237 235 233
254 254 253 253 253 253 253 254 255 256 257 257 255 252 248 244 243 242 242 245 248 251 254 255 257 258 260 260 260 256 243 231 235 246 262 259 254 249 232 222 232 244 255 264 266 259 241 237 238 240 239 248 262 276 285 291 295 298 300 302 305 307 309 308 305 299 289 278 267 258 251 247 244 242 241 240 239 238 238 238 237 237 237 236 234 232
254 256 256 254 252 252 253 255 254 253 252 251 251 251 252 248 247 247 249 252 256 261 266 269 272 272 269 266 264 257 241 231 234 243 254 254 253 249 226 215 235 252 262 270 270 261 242 237 237 240 243 254 266 278 287 295 300 303 305 307 310 314 318 318 316 311 302 290 276 264 254 248 243 240 238 237 236 236 235 235 235 235 235 234 233 231
253 254 255 253 251 249 249 250 249 247 244 245 249 251 253 254 254 255 254 255 258 262 266 271 273 272 268 266 264 258 242 227 227 238 249 255 259 261 258 253 258 263 268 270 266 255 244 241 239 240 243 254 266 278 290 299 305 308 310 313 317 322 327 328 327 322 314 301 285 269 256 248 243 239 236 234 233 233 233 233 233 232 232 231 230 229
249 250 251 250 249 248 248 248 247 246 244 245 246 249 253 257 259 261 260 260 261 262 263 264 265 264 262 263 263 258 240 219 217 227 244 259 268 271 269 266 267 269 272 268 259 249 245 245 245 245 247 256 269 280 293 303 309 313 315 319 325 330 335 336 334 331 324 311 294 275 259 248 241 236 233 231 230 229 229 229 229 229 229 228 227 226
244 246 247 249 250 251 251 251 250 249 248 249 250 252 256 260 263 265 264 261 259 260 261 261 260 259 257 257 256 253 242 216 210 219 235 256 269 271 267 264 261 261 263 260 250 240 243 247 250 253 258 267 277 287 299 307 313 317 320 326 332 338 341 342 340 337 332 320 303 282 261 248 239 233 229 227 226 225 226 226 226 226 225 225 224 223
243 245 247 249 250 252 252 253 253 252 251 251 252 253 256 260 262 262 258 254 253 255 256 256 256 255 255 253 253 253 251 231 217 215 223 243 260 265 262 255 245 243 251 249 240 230 239 247 256 263 272 279 283 292 304 311 316 320 324 332 339 344 346 346 345 343 339 330 316 293 265 246 235 228 224 222 221 221 221 221 222 221 221 221 222 222
243 244 245 247 248 250 252 253 253 254 253 253 252 253 253 254 254 253 251 249 249 249 249 249 250 252 252 251 252 254 255 244 226 210 204 223 244 255 257 248 232 227 235 235 228 222 229 241 257 272 284 292 294 299 307 314 318 323 328 338 345 349 350 349 348 347 345 341 332 313 276 247 232 223 219 217 216 216 217 217 217 217 217 217 218 220
242 243 244 245 247 248 250 251 252 253 253 253 252 251 249 248 247 247 248 248 247 246 246 246 246 247 249 252 254 255 253 246 230 203 188 209 234 247 249 236 219 214 214 218 220 219 219 220 241 280 296 304 306 307 309 317 320 323 328 342 349 352 353 352 351 351 351 350 348 340 313 259 230 219 214 212 211 211 212 212 213 213 213 213 213 214
240 241 242 243 244 246 247 248 249 250 250 251 251 250 248 245 244 244 246 244 243 243 245 245 245 245 247 251 252 250 247 243 225 197 181 203 227 240 235 222 210 203 195 205 217 222 214 196 195 278 313 317 318 320 322 325 325 325 328 343 351 354 355 354 354 354 355 357 360 2 3 352 261 215 209 208 206 205 203 201 200 198 195 190 186 182
235 236 238 239 241 242 243 243 244 246 247 247 247 247 245 243 241 241 241 240 239 241 244 245 246 246 245 247 247 246 246 242 217 185 176 197 221 231 221 213 204 196 191 203 218 228 216 185 164 115 338 334 334 336 339 338 337 337 338 346 352 355 356 356 356 356 357 1 6 12 19 25 31 42 101 179 185 183 178 173 168 160 146 138 130 123
232 232 234 235 236 237 237 237 238 239 241 242 242 241 240 239 238 237 237 236 237 239 242 245 247 247 244 243 244 247 253 249 212 179 174 189 214 226 213 203 197 193 194 210 232 249 241 188 149 112 1 352 348 350 351 354 352 351 350 353 354 355 356 357 359 359 359 1 7 14 22 30 36 42 49 61 85 116 134 138 137 134 131 124 118 112
233 233 233 234 233 232 231 231 231 232 233 235 235 236 237 236 235 235 235 234 235 236 240 243 246 247 246 246 246 249 254 252 211 176 173 185 206 217 204 194 190 190 191 208 235 259 267 203 152 139 71 22 11 4 5 6 4 2 0 2 1 358 357 359 2 3 3 0 3 9 19 30 37 43 47 53 60 72 86 99 108 116 124 122 118 114
234 234 234 233 231 229 227 226 227 227 228 229 230 230 230 231 231 231 231 231 232 232 235 238 242 245 247 248 250 251 252 245 211 176 175 185 199 207 194 190 188 187 187 196 212 232 252 196 171 163 154 90 44 27 19 13 10 8 9 12 11 7 1 2 5 7 6 3 1 3 10 23 34 41 47 52 56 60 64 71 79 87 95 107 115 116
232 232 231 230 228 227 226 226 226 226 226 226 226 225 225 225 225 226 227 227 227 228 229 232 235 238 241 245 248 250 251 243 215 184 179 187 194 197 190 192 188 185 185 187 191 194 194 188 185 181 164 129 76 42 28 19 15 14 18 22 23 19 11 9 9 10 10 10 8 6 4 14 27 38 47 53 57 60 62 64 66 69 73 82 91 101
229 229 228 227 226 226 227 227 226 226 226 226 225 224 222 222 222 222 223 223 224 225 226 228 230 232 235 240 244 248 251 247 216 188 185 189 191 192 192 192 187 183 183 183 182 180 175 178 180 176 156 131 97 60 33 25 25 27 28 29 28 24 18 14 14 14 16 19 17 13 7 13 23 34 45 53 58 61 63 63 64 65 67 69 72 76
227 227 226 225 226 227 228 227 226 225 225 226 226 226 226 227 227 228 229 229 231 232 233 235 236 237 238 240 244 247 251 246 220 193 189 189 189 188 188 184 181 180 180 177 173 168 165 164 162 157 135 111 96 81 53 34 35 37 35 32 30 26 20 16 15 17 20 26 26 22 17 19 24 31 38 49 54 58 62 63 64 65 66 67 68 69
223 224 224 224 225 226 228 227 226 224 224 225 227 229 231 234 235 237 239 240 243 245 248 249 251 252 251 252 251 251 251 242 218 194 188 187 185 181 175 167 169 173 173 168 164 161 160 159 154 145 126 102 90 86 81 60 51 48 43 38 36 33 25 19 17 19 23 29 32 32 28 27 29 31 31 36 41 47 55 58 60 63 66 67 68 69
223 224 225 225 225 226 226 227 226 226 227 229 231 233 235 238 240 242 244 247 248 249 250 251 254 259 261 261 258 255 248 225 199 185 180 178 175 170 161 154 153 154 152 147 149 155 161 156 148 140 134 122 108 94 75 64 59 56 53 47 41 35 27 21 20 22 24 30 34 36 33 31 33 35 35 33 36 41 47 51 52 54 59 65 68 69
221 223 225 226 226 226 227 228 229 230 231 233 233 233 232 236 238 240 242 242 241 238 234 226 220 226 299 318 309 293 259 183 168 165 162 160 157 153 147 143 141 139 134 124 121 125 133 126 123 122 125 122 118 106 83 64 56 55 59 58 49 37 26 22 20 21 24 30 35 38 37 37 39 41 41 39 39 41 44 47 46 44 41 53 66 72
222 224 225 228 228 228 227 227 225 222 219 217 217 218 216 213 211 208 207 203 197 186 171 157 144 119 88 61 47 42 42 50 70 93 110 115 120 123 125 128 129 127 121 111 101 95 97 102 104 104 103 105 103 97 85 68 58 56 61 67 66 55 37 29 24 22 25 31 36 40 44 44 44 45 44 44 43 42 43 49 50 46 40 41 52 67
228 229 225 221 214 201 179 156 157 165 180 188 194 197 197 192 186 180 174 171 168 163 159 153 141 123 101 78 63 53 49 51 54 61 71 84 95 103 108 112 115 115 111 104 97 91 87 90 93 96 98 101 101 96 83 68 57 51 54 64 71 67 52 34 26 23 30 33 37 41 45 47 47 47 47 47 46 44 45 49 52 53 52 49 49 53
228 216 183 158 146 143 141 148 156 166 175 181 187 190 188 185 180 175 171 167 165 162 160 152 138 122 106 91 76 64 57 57 61 66 71 78 87 94 99 99 101 103 105 102 97 91 84 79 77 76 76 86 92 92 88 75 61 49 43 43 54 65 61 29 20 22 33 38 40 42 45 48 51 52 53 52 50 48 46 49 51 52 53 56 57 57
164 132 126 130 137 143 149 158 166 171 175 180 182 182 180 180 179 176 171 164 159 154 150 140 126 113 102 96 88 78 69 63 61 62 66 71 77 84 90 90 88 87 88 93 96 95 90 80 73 69 67 75 82 85 84 79 70 60 49 44 51 59 67 46 26 26 37 41 42 43 44 50 56 59 58 55 51 47 45 46 46 46 46 49 55 59
121 123 129 137 146 152 161 165 166 168 170 171 171 169 168 173 174 173 165 155 147 142 139 134 123 112 103 101 97 92 84 75 68 64 63 65 70 75 80 82 81 79 77 78 81 86 90 87 83 78 76 77 79 79 80 79 76 71 64 59 59 61 60 48 38 36 43 45 44 42 41 50 60 64 62 57 53 48 45 45 45 44 43 45 50 55
123 132 140 145 151 157 160 157 155 152 152 148 145 142 142 150 154 153 147 141 135 132 132 128 121 114 111 110 108 103 96 87 80 73 69 66 67 69 72 75 76 77 76 73 70 69 72 78 83 87 87 82 76 73 71 75 77 76 70 67 67 65 59 48 40 37 39 44 46 45 43 54 63 66 65 61 56 51 46 45 45 45 45 46 50 53
127 135 140 141 142 142 139 136 135 132 129 122 115 112 113 121 125 126 126 125 124 122 121 115 110 109 110 111 110 108 105 100 94 88 82 79 77 76 76 76 76 76 78 76 72 67 63 61 62 68 80 82 79 72 64 66 69 72 72 69 69 67 63 52 41 34 34 42 44 44 44 58 65 67 68 66 62 57 51 48 46 46 46 47 51 54
116 121 124 125 122 119 116 116 118 116 112 106 100 96 93 99 104 107 108 109 110 111 112 107 105 103 103 102 103 105 108 106 104 100 95 92 89 88 87 87 85 82 81 80 77 73 68 61 56 52 55 66 74 76 71 64 63 65 66 66 68 69 67 57 46 39 40 42 42 41 45 58 66 70 72 69 66 60 55 51 48 46 45 48 52 56
83 91 99 103 104 105 104 105 107 106 104 102 97 92 85 84 87 90 94 96 99 100 102 103 103 102 100 99 100 103 105 105 105 104 103 102 102 102 101 100 98 95 91 87 84 80 75 67 60 53 47 49 57 68 72 66 63 61 60 60 65 68 69 61 52 46 46 46 45 45 49 56 63 69 76 74 70 65 59 55 51 48 47 50 55 59
59 66 74 81 86 89 91 93 94 95 96 95 92 89 83 79 76 76 80 84 87 90 93 97 99 101 101 100 101 103 105 106 105 106 106 109 111 113 112 112 110 107 103 98 94 89 83 74 63 54 46 43 44 50 64 65 65 64 62 58 61 66 70 65 57 51 50 50 49 50 53 56 58 62 71 75 74 70 64 59 54 51 49 53 57 61
52 56 61 67 71 74 76 79 82 84 86 88 87 86 83 80 77 75 75 78 81 84 86 89 92 95 98 97 98 99 102 104 106 106 108 112 116 118 120 121 120 118 114 109 105 100 94 86 72 56 43 37 35 36 47 52 63 70 68 60 59 63 69 67 62 57 54 53 53 53 55 57 57 58 64 73 76 74 68 62 57 52 48 52 57 62